DELTA 1 DEB

Satellite information

Favourite Embed

Satellite Type and Status

DEBRISIN ORBIT

Key statistics

Satellite DELTA 1 DEB at a glance.

Uptime

19285

Days in orbit

Revolutions

≈ 13.4

Per day

Orbit

SSO

Sun Synchronous Orbit

Inclination

98.9

Latest

Satellite identification and parameters

Extended collection of information and parameters for DELTA 1 DEB.

Object identification

Identified? True

Debris? True

Object name: DELTA 1 DEB

International designator: 1972-058KC

Object number (NORAD): 42569

Object ID (CCSDS): 42569

Country: UNITED STATES OF AMERICA (US)

Current information (Y/N): Y

RCS size: SMALL

Orbital parameters

Period: 107.143 minutes

Inclination: 98.8726 deg

SMA: 7472.564 km

Apoapsis: 1355.193 km

Periapsis: 833.664 km

RAAN: 290.6935 deg

Eccentricy: 0.0348963

Argument of periapsis: 326.9363 deg

Mean anomaly: 31.038 deg

Mean motion: 13.43997118 rev/day

Mean motion (dot): 0.000015 rev/day2

B* drag term: 0.0018457 1/REarth

Two-line elements (TLE)

Creation date: May 11, 2025, 2:40 a.m.

Reference frame: TEME

Reference center: EARTH

Epoch: May 10, 2025, 9:17 p.m. UTC

TLE line 0: 0 DELTA 1 DEB

TLE line 1: 1 42569U 72058KC 25130.88734811 .00001500 00000-0 18457-2 0 9992

TLE line 2: 2 42569 98.8726 290.6935 0348963 326.9363 31.0380 13.43997118547633

Live tracking on map

Real-time ground track for satellite DELTA 1 DEB.

In-orbit conjunctions

A list of the most updated potential collisions computed for object DELTA 1 DEB.

Target Orbit TCA Probability of collision Miss distance Type
OBJECT A LEO 2025-02-15 18:30:05 0.0001141557 616.0 (m) UNKNOWN
CZ-6A DEB SSO 2025-02-04 00:39:35 0.0001577385 182.0 (m) DEBRIS
SL-3 R/B LEO 2024-10-26 03:35:49 0.0002049518 495.0 (m) ROCKET BODY

Associated space launch

Earth observation satellite

DELTA 1 DEB was lifted into orbit during the mission ‘Delta 0900 | Landsat 1’, on board a Delta 0900 space rocket.

The launch took place on July 23, 1972, 6:06 p.m. from Space Launch Complex 2W.

For more information about the launch, click the button.

Launch to space Delta 0900 | Landsat 1
Delta 0900 | Landsat 1

Agency: N/A

Status: Launch Successful

Launch date: July 23, 1972, 6:06 p.m. UTC

Rocket: Delta 0900

Launch pad: Space Launch Complex 2W

Location: Vandenberg SFB, CA, USA

...

Latest news about this satellite

There are no fresh news available about this satellite. Check back as we update our databases every day.


Newsletter sign-up

Weekly statistics, charts and insights to help you stay on top of the space industry.